Time,TemperatureF,DewpointF,PressureIn,WindDirection,WindDirectionDegrees,WindSpeedMPH,WindSpeedGustMPH,Humidity,HourlyPrecipIn,Conditions,Clouds,dailyrainin,SoftwareType,DateUTC
2013-09-03 00:00:00,64.6,55.1,29.89,NE,45,0.0,0.0,71,0.00,,,0.00,WUHU216HW,2013-09-03 07:00:00,
2013-09-03 00:05:00,64.6,55.1,29.89,NE,45,0.0,0.0,71,0.00,,,0.00,WUHU216HW,2013-09-03 07:05:00,
2013-09-03 00:30:00,64.6,56.2,29.88,North,0,0.7,0.7,74,0.00,,,0.00,WUHU216HW,2013-09-03 07:30:00,
2013-09-03 00:35:00,64.6,56.2,29.88,North,0,0.7,0.7,74,0.00,,,0.00,WUHU216HW,2013-09-03 07:35:00,
2013-09-03 01:00:00,64.8,57.1,29.88,NNW,338,1.6,1.6,76,0.00,,,0.00,WUHU216HW,2013-09-03 08:00:00,
2013-09-03 01:05:00,64.8,57.1,29.88,NNW,338,1.6,1.6,76,0.00,,,0.00,WUHU216HW,2013-09-03 08:05:00,
2013-09-03 01:30:00,64.4,57.1,29.89,North,0,1.1,1.1,77,0.00,,,0.00,WUHU216HW,2013-09-03 08:30:00,
2013-09-03 01:35:00,64.4,57.1,29.89,North,0,1.1,1.1,77,0.00,,,0.00,WUHU216HW,2013-09-03 08:35:00,
2013-09-03 02:00:00,64.4,57.8,29.90,ESE,113,0.0,0.0,79,0.00,,,0.00,WUHU216HW,2013-09-03 09:00:00,
2013-09-03 02:05:00,64.4,57.8,29.90,ESE,113,0.0,0.0,79,0.00,,,0.00,WUHU216HW,2013-09-03 09:05:00,
2013-09-03 02:30:00,63.4,57.8,29.88,NW,315,1.1,1.1,82,0.00,,,0.00,WUHU216HW,2013-09-03 09:30:00,
2013-09-03 02:35:00,63.4,57.8,29.88,NW,315,1.1,1.1,82,0.00,,,0.00,WUHU216HW,2013-09-03 09:35:00,
2013-09-03 03:00:00,63.0,57.4,29.88,NNW,338,0.9,0.9,82,0.00,,,0.00,WUHU216HW,2013-09-03 10:00:00,
2013-09-03 03:05:00,63.0,57.4,29.88,NNW,338,0.9,0.9,82,0.00,,,0.00,WUHU216HW,2013-09-03 10:05:00,
2013-09-03 03:30:00,63.0,57.7,29.90,NW,315,0.0,0.0,83,0.00,,,0.00,WUHU216HW,2013-09-03 10:30:00,
2013-09-03 03:35:00,63.0,57.7,29.90,NW,315,0.0,0.0,83,0.00,,,0.00,WUHU216HW,2013-09-03 10:35:00,
2013-09-03 04:00:00,62.6,57.7,29.89,North,0,1.1,1.1,84,0.00,,,0.00,WUHU216HW,2013-09-03 11:00:00,
2013-09-03 04:05:00,62.6,57.7,29.89,North,0,1.1,1.1,84,0.00,,,0.00,WUHU216HW,2013-09-03 11:05:00,
2013-09-03 04:30:00,62.6,57.3,29.89,ENE,68,1.8,1.8,83,0.00,,,0.00,WUHU216HW,2013-09-03 11:30:00,
2013-09-03 04:35:00,62.6,57.3,29.89,ENE,68,1.8,1.8,83,0.00,,,0.00,WUHU216HW,2013-09-03 11:35:00,
2013-09-03 05:00:00,62.3,57.7,29.89,NNW,338,1.3,1.3,85,0.00,,,0.00,WUHU216HW,2013-09-03 12:00:00,
2013-09-03 05:05:00,62.3,57.7,29.89,NNW,338,1.3,1.3,85,0.00,,,0.00,WUHU216HW,2013-09-03 12:05:00,
2013-09-03 05:30:00,62.1,58.2,29.90,SSE,158,1.8,1.8,87,0.00,,,0.00,WUHU216HW,2013-09-03 12:30:00,
2013-09-03 05:35:00,62.1,58.2,29.90,SSE,158,1.8,1.8,87,0.00,,,0.00,WUHU216HW,2013-09-03 12:35:00,
2013-09-03 06:00:00,62.1,57.9,29.90,ENE,68,0.9,0.9,86,0.00,,,0.00,WUHU216HW,2013-09-03 13:00:00,
2013-09-03 06:05:00,62.1,57.9,29.90,ENE,68,0.9,0.9,86,0.00,,,0.00,WUHU216HW,2013-09-03 13:05:00,
2013-09-03 06:30:00,62.1,58.2,29.91,ENE,68,1.1,1.1,87,0.00,,,0.00,WUHU216HW,2013-09-03 13:30:00,
2013-09-03 06:35:00,62.1,58.2,29.91,ENE,68,1.1,1.1,87,0.00,,,0.00,WUHU216HW,2013-09-03 13:35:00,
2013-09-03 07:00:00,61.9,58.1,29.90,NNW,338,1.3,1.3,87,0.00,,,0.00,WUHU216HW,2013-09-03 14:00:00,
2013-09-03 07:05:00,61.9,58.1,29.90,NNW,338,1.3,1.3,87,0.00,,,0.00,WUHU216HW,2013-09-03 14:05:00,
2013-09-03 07:30:00,61.6,58.1,29.92,ENE,68,1.1,1.1,88,0.00,,,0.00,WUHU216HW,2013-09-03 14:30:00,
2013-09-03 07:35:00,61.6,58.1,29.92,ENE,68,1.1,1.1,88,0.00,,,0.00,WUHU216HW,2013-09-03 14:35:00,
2013-09-03 08:00:00,61.9,58.4,29.92,North,0,0.9,0.9,88,0.00,,,0.00,WUHU216HW,2013-09-03 15:00:00,
2013-09-03 08:05:00,61.9,58.4,29.92,North,0,0.9,0.9,88,0.00,,,0.00,WUHU216HW,2013-09-03 15:05:00,
2013-09-03 08:30:00,62.3,58.7,29.91,NW,315,0.4,0.4,88,0.00,,,0.00,WUHU216HW,2013-09-03 15:30:00,
2013-09-03 08:35:00,62.3,58.7,29.91,NW,315,0.4,0.4,88,0.00,,,0.00,WUHU216HW,2013-09-03 15:35:00,
2013-09-03 09:00:00,62.3,58.7,29.91,WSW,248,1.1,1.1,88,0.00,,,0.00,WUHU216HW,2013-09-03 16:00:00,
2013-09-03 09:05:00,62.3,58.7,29.91,WSW,248,1.1,1.1,88,0.00,,,0.00,WUHU216HW,2013-09-03 16:05:00,
2013-09-03 09:30:00,63.0,59.8,29.92,WNW,293,2.0,2.0,89,0.00,,,0.00,WUHU216HW,2013-09-03 16:30:00,
2013-09-03 09:35:00,63.0,59.8,29.92,WNW,293,2.0,2.0,89,0.00,,,0.00,WUHU216HW,2013-09-03 16:35:00,
2013-09-03 10:00:00,63.0,59.4,29.93,NW,315,1.1,1.1,88,0.00,,,0.00,WUHU216HW,2013-09-03 17:00:00,
2013-09-03 10:05:00,63.0,59.4,29.93,NW,315,1.1,1.1,88,0.00,,,0.00,WUHU216HW,2013-09-03 17:05:00,
2013-09-03 10:30:00,62.8,59.6,29.92,NNW,338,1.1,1.1,89,0.00,,,0.00,WUHU216HW,2013-09-03 17:30:00,
2013-09-03 10:35:00,62.8,59.6,29.92,NNW,338,1.1,1.1,89,0.00,,,0.00,WUHU216HW,2013-09-03 17:35:00,
2013-09-03 11:00:00,63.7,60.5,29.92,WNW,293,2.0,2.0,89,0.00,,,0.00,WUHU216HW,2013-09-03 18:00:00,
2013-09-03 11:05:00,63.7,60.5,29.92,WNW,293,2.0,2.0,89,0.00,,,0.00,WUHU216HW,2013-09-03 18:05:00,
2013-09-03 11:30:00,64.3,60.4,29.94,WSW,248,0.0,0.0,87,0.00,,,0.00,WUHU216HW,2013-09-03 18:30:00,
2013-09-03 11:35:00,64.3,60.4,29.94,WSW,248,0.0,0.0,87,0.00,,,0.00,WUHU216HW,2013-09-03 18:35:00,
2013-09-03 12:00:00,64.6,60.7,29.93,NE,45,1.1,1.1,87,0.00,,,0.00,WUHU216HW,2013-09-03 19:00:00,
2013-09-03 12:05:00,64.6,60.7,29.93,NE,45,1.1,1.1,87,0.00,,,0.00,WUHU216HW,2013-09-03 19:05:00,
2013-09-03 12:30:00,65.0,61.0,29.95,SSW,203,1.6,1.6,87,0.00,,,0.00,WUHU216HW,2013-09-03 19:30:00,
2013-09-03 12:35:00,65.0,61.0,29.95,SSW,203,1.6,1.6,87,0.00,,,0.00,WUHU216HW,2013-09-03 19:35:00,
2013-09-03 13:00:00,65.7,62.0,29.93,East,90,0.0,0.0,88,0.00,,,0.00,WUHU216HW,2013-09-03 20:00:00,
2013-09-03 13:05:00,65.7,62.0,29.93,East,90,0.0,0.0,88,0.00,,,0.00,WUHU216HW,2013-09-03 20:05:00,
2013-09-03 13:30:00,66.8,62.5,29.94,NW,315,1.1,1.1,86,0.00,,,0.00,WUHU216HW,2013-09-03 20:30:00,
2013-09-03 13:35:00,66.8,62.5,29.94,NW,315,1.1,1.1,86,0.00,,,0.00,WUHU216HW,2013-09-03 20:35:00,
2013-09-03 14:00:00,67.7,63.0,29.94,NNW,338,1.3,1.3,85,0.00,,,0.00,WUHU216HW,2013-09-03 21:00:00,
2013-09-03 14:05:00,67.7,63.0,29.94,NNW,338,1.3,1.3,85,0.00,,,0.00,WUHU216HW,2013-09-03 21:05:00,
2013-09-03 14:30:00,70.9,63.7,29.94,NNE,23,1.1,1.1,78,0.00,,,0.00,WUHU216HW,2013-09-03 21:30:00,
2013-09-03 14:35:00,70.9,63.7,29.94,NNE,23,1.1,1.1,78,0.00,,,0.00,WUHU216HW,2013-09-03 21:35:00,
2013-09-03 15:00:00,70.7,63.1,29.94,NW,315,1.3,1.3,77,0.00,,,0.00,WUHU216HW,2013-09-03 22:00:00,
2013-09-03 15:05:00,70.7,63.1,29.94,NW,315,1.3,1.3,77,0.00,,,0.00,WUHU216HW,2013-09-03 22:05:00,
2013-09-03 15:30:00,72.4,64.7,29.94,South,180,1.8,1.8,77,0.00,,,0.00,WUHU216HW,2013-09-03 22:30:00,
2013-09-03 15:35:00,72.4,64.7,29.94,South,180,1.8,1.8,77,0.00,,,0.00,WUHU216HW,2013-09-03 22:35:00,
2013-09-03 16:00:00,72.5,64.2,29.93,SE,135,1.8,1.8,75,0.00,,,0.00,WUHU216HW,2013-09-03 23:00:00,
2013-09-03 16:05:00,72.5,64.2,29.93,SE,135,1.8,1.8,75,0.00,,,0.00,WUHU216HW,2013-09-03 23:05:00,
2013-09-03 16:30:00,72.7,64.4,29.94,NW,315,0.4,0.4,75,0.00,,,0.00,WUHU216HW,2013-09-03 23:30:00,
2013-09-03 16:35:00,72.7,64.4,29.94,NW,315,0.4,0.4,75,0.00,,,0.00,WUHU216HW,2013-09-03 23:35:00,
2013-09-03 17:00:00,72.7,63.6,29.93,WSW,248,2.0,2.0,73,0.00,,,0.00,WUHU216HW,2013-09-04 00:00:00,
2013-09-03 17:05:00,72.7,63.6,29.93,WSW,248,3.4,3.4,73,0.00,,,0.00,WUHU216HW,2013-09-04 00:05:00,
2013-09-03 17:10:00,72.7,63.6,29.93,WSW,248,3.4,3.4,73,0.00,,,0.00,WUHU216HW,2013-09-04 00:10:00,
2013-09-03 17:30:00,72.0,61.7,29.93,NW,315,1.6,1.6,70,0.00,,,0.00,WUHU216HW,2013-09-04 00:30:00,
2013-09-03 17:35:00,72.0,61.7,29.93,NW,315,1.6,1.6,70,0.00,,,0.00,WUHU216HW,2013-09-04 00:35:00,
2013-09-03 18:00:00,72.9,61.3,29.92,West,270,1.8,1.8,67,0.00,,,0.00,WUHU216HW,2013-09-04 01:00:00,
2013-09-03 18:05:00,72.9,61.3,29.92,West,270,1.8,1.8,67,0.00,,,0.00,WUHU216HW,2013-09-04 01:05:00,
2013-09-03 18:10:00,72.7,60.7,29.92,WSW,248,2.9,4.0,66,0.00,,,0.00,WUHU216HW,2013-09-04 01:10:00,
2013-09-03 18:15:00,72.7,60.7,29.92,NW,315,0.0,4.0,66,0.00,,,0.00,WUHU216HW,2013-09-04 01:15:00,
2013-09-03 18:20:00,72.5,60.0,29.92,WNW,293,1.8,3.6,65,0.00,,,0.00,WUHU216HW,2013-09-04 01:20:00,
2013-09-03 18:25:00,72.4,60.3,29.92,NNW,338,0.0,1.8,66,0.00,,,0.00,WUHU216HW,2013-09-04 01:25:00,
2013-09-03 18:30:00,72.4,60.3,29.92,NNE,23,1.1,3.1,66,0.00,,,0.00,WUHU216HW,2013-09-04 01:30:00,
2013-09-03 18:35:00,72.0,60.0,29.92,NNW,338,0.4,3.1,66,0.00,,,0.00,WUHU216HW,2013-09-04 01:35:00,
2013-09-03 18:40:00,71.8,59.4,29.92,NW,315,1.1,2.0,65,0.00,,,0.00,WUHU216HW,2013-09-04 01:40:00,
2013-09-03 18:45:00,71.8,59.9,29.92,NW,315,0.9,1.8,66,0.00,,,0.00,WUHU216HW,2013-09-04 01:45:00,
2013-09-03 18:50:00,71.6,59.7,29.92,NNW,338,0.4,1.3,66,0.00,,,0.00,WUHU216HW,2013-09-04 01:50:00,
2013-09-03 18:55:00,71.5,59.5,29.92,NNW,338,1.8,1.8,66,0.00,,,0.00,WUHU216HW,2013-09-04 01:55:00,
2013-09-03 19:00:00,71.5,59.5,29.92,NNW,338,1.1,1.8,66,0.00,,,0.00,WUHU216HW,2013-09-04 02:00:00,
2013-09-03 19:05:00,71.3,59.3,29.92,North,0,0.4,1.6,66,0.00,,,0.00,WUHU216HW,2013-09-04 02:05:00,
2013-09-03 19:10:00,71.3,59.8,29.93,NNW,338,0.7,1.3,67,0.00,,,0.00,WUHU216HW,2013-09-04 02:10:00,
2013-09-03 19:15:00,71.1,59.6,29.92,NW,315,0.9,1.1,67,0.00,,,0.00,WUHU216HW,2013-09-04 02:15:00,
2013-09-03 19:20:00,70.7,59.7,29.92,NNW,338,0.7,1.6,68,0.00,,,0.00,WUHU216HW,2013-09-04 02:20:00,
2013-09-03 19:25:00,70.4,58.9,29.93,West,270,0.9,1.6,67,0.00,,,0.00,WUHU216HW,2013-09-04 02:25:00,
2013-09-03 19:30:00,70.0,58.5,29.93,NW,315,0.7,1.6,67,0.00,,,0.00,WUHU216HW,2013-09-04 02:30:00,
2013-09-03 19:35:00,69.7,58.6,29.93,NNW,338,0.4,1.3,68,0.00,,,0.00,WUHU216HW,2013-09-04 02:35:00,
2013-09-03 19:40:00,69.3,58.2,29.93,NNW,338,1.1,1.6,68,0.00,,,0.00,WUHU216HW,2013-09-04 02:40:00,
2013-09-03 19:45:00,68.9,58.0,29.93,NNW,338,0.0,2.5,68,0.00,,,0.00,WUHU216HW,2013-09-04 02:45:00,
2013-09-03 19:50:00,68.8,57.8,29.93,North,0,0.7,2.5,68,0.00,,,0.00,WUHU216HW,2013-09-04 02:50:00,
2013-09-03 19:55:00,68.4,57.9,29.93,North,0,0.9,1.6,69,0.00,,,0.00,WUHU216HW,2013-09-04 02:55:00,
2013-09-03 20:00:00,68.2,57.7,29.93,North,0,0.4,1.6,69,0.00,,,0.00,WUHU216HW,2013-09-04 03:00:00,
2013-09-03 20:05:00,68.0,58.0,29.93,North,0,0.2,1.6,70,0.00,,,0.00,WUHU216HW,2013-09-04 03:05:00,
2013-09-03 20:10:00,67.7,57.6,29.93,NNE,23,1.1,1.1,70,0.00,,,0.00,WUHU216HW,2013-09-04 03:10:00,
2013-09-03 20:15:00,67.5,57.4,29.93,North,0,0.9,1.1,70,0.00,,,0.00,WUHU216HW,2013-09-04 03:15:00,
2013-09-03 20:20:00,67.0,57.2,29.93,North,0,0.0,1.1,71,0.00,,,0.00,WUHU216HW,2013-09-04 03:20:00,
2013-09-03 20:25:00,66.6,57.2,29.93,North,0,0.2,0.9,72,0.00,,,0.00,WUHU216HW,2013-09-04 03:25:00,
2013-09-03 20:30:00,66.4,57.5,29.94,North,0,0.9,1.3,73,0.00,,,0.00,WUHU216HW,2013-09-04 03:30:00,
2013-09-03 20:35:00,66.2,57.7,29.94,North,0,0.9,1.3,74,0.00,,,0.00,WUHU216HW,2013-09-04 03:35:00,
2013-09-03 20:40:00,66.2,57.7,29.94,NNW,338,0.9,2.5,74,0.00,,,0.00,WUHU216HW,2013-09-04 03:40:00,
2013-09-03 20:45:00,66.1,57.5,29.94,NNW,338,0.9,2.7,74,0.00,,,0.00,WUHU216HW,2013-09-04 03:45:00,
2013-09-03 20:50:00,65.9,57.3,29.94,North,0,1.1,3.4,74,0.00,,,0.00,WUHU216HW,2013-09-04 03:50:00,
2013-09-03 20:55:00,65.9,57.7,29.94,North,0,2.9,3.4,75,0.00,,,0.00,WUHU216HW,2013-09-04 03:55:00,
2013-09-03 21:00:00,65.9,58.1,29.94,NNW,338,1.1,3.4,76,0.00,,,0.00,WUHU216HW,2013-09-04 04:00:00,
2013-09-03 21:01:00,65.9,58.5,29.94,North,0,2.2,3.4,77,0.00,,,0.00,WUHU216HW,2013-09-04 04:01:00,
2013-09-03 21:02:00,65.9,58.1,29.94,NNW,338,2.2,3.4,76,0.00,,,0.00,WUHU216HW,2013-09-04 04:02:00,
2013-09-03 21:04:00,65.7,58.3,29.94,NNW,338,2.0,3.4,77,0.00,,,0.00,WUHU216HW,2013-09-04 04:04:00,
2013-09-03 21:09:00,65.5,58.2,29.94,NNW,338,2.2,4.0,77,0.00,,,0.00,WUHU216HW,2013-09-04 04:09:00,
2013-09-03 21:14:00,65.3,58.0,29.94,NW,315,1.8,4.0,77,0.00,,,0.00,WUHU216HW,2013-09-04 04:14:00,
2013-09-03 21:19:00,65.2,58.2,29.94,North,0,1.1,3.8,78,0.00,,,0.00,WUHU216HW,2013-09-04 04:19:00,
2013-09-03 21:24:00,65.0,58.0,29.94,NNW,338,2.0,3.8,78,0.00,,,0.00,WUHU216HW,2013-09-04 04:24:00,
2013-09-03 21:29:00,64.8,57.8,29.94,NNW,338,1.8,4.3,78,0.00,,,0.00,WUHU216HW,2013-09-04 04:29:00,
2013-09-03 21:34:00,64.6,58.0,29.94,North,0,2.5,4.3,79,0.00,,,0.00,WUHU216HW,2013-09-04 04:34:00,
2013-09-03 21:39:00,64.4,58.1,29.94,NNW,338,2.5,4.3,80,0.00,,,0.00,WUHU216HW,2013-09-04 04:39:00,
2013-09-03 21:44:00,64.4,58.1,29.94,North,0,2.9,4.0,80,0.00,,,0.00,WUHU216HW,2013-09-04 04:44:00,
2013-09-03 21:49:00,64.4,58.1,29.94,NNW,338,2.9,4.0,80,0.00,,,0.00,WUHU216HW,2013-09-04 04:49:00,
2013-09-03 21:54:00,64.3,58.3,29.94,NNW,338,2.2,4.0,81,0.00,,,0.00,WUHU216HW,2013-09-04 04:54:00,
2013-09-03 21:59:00,64.3,58.3,29.95,North,0,1.8,4.0,81,0.00,,,0.00,WUHU216HW,2013-09-04 04:59:00,
2013-09-03 22:04:00,64.1,58.2,29.95,NNW,338,1.1,3.1,81,0.00,,,0.00,WUHU216HW,2013-09-04 05:04:00,
2013-09-03 22:09:00,64.3,58.3,29.95,North,0,0.7,2.2,81,0.00,,,0.00,WUHU216HW,2013-09-04 05:09:00,
2013-09-03 22:14:00,64.4,58.5,29.95,WNW,293,1.1,2.5,81,0.00,,,0.00,WUHU216HW,2013-09-04 05:14:00,
2013-09-03 22:19:00,64.4,58.5,29.95,NW,315,0.4,2.5,81,0.00,,,0.00,WUHU216HW,2013-09-04 05:19:00,
2013-09-03 22:24:00,64.4,58.5,29.96,NNW,338,0.0,1.8,81,0.00,,,0.00,WUHU216HW,2013-09-04 05:24:00,
2013-09-03 22:29:00,64.4,58.5,29.96,NW,315,0.4,1.8,81,0.00,,,0.00,WUHU216HW,2013-09-04 05:29:00,
2013-09-03 22:34:00,64.3,58.3,29.96,NW,315,0.2,1.6,81,0.00,,,0.00,WUHU216HW,2013-09-04 05:34:00,
2013-09-03 22:39:00,64.1,58.2,29.96,NW,315,0.4,0.7,81,0.00,,,0.00,WUHU216HW,2013-09-04 05:39:00,
2013-09-03 22:44:00,64.1,57.8,29.96,NW,315,0.4,0.4,80,0.00,,,0.00,WUHU216HW,2013-09-04 05:44:00,
2013-09-03 22:49:00,63.9,58.0,29.96,NNW,338,0.4,1.1,81,0.00,,,0.00,WUHU216HW,2013-09-04 05:49:00,
2013-09-03 22:54:00,63.9,58.0,29.96,NNW,338,1.8,2.5,81,0.00,,,0.00,WUHU216HW,2013-09-04 05:54:00,
2013-09-03 22:59:00,63.7,57.8,29.96,North,0,0.4,2.5,81,0.00,,,0.00,WUHU216HW,2013-09-04 05:59:00,
2013-09-03 23:04:00,63.7,57.8,29.96,North,0,0.9,1.8,81,0.00,,,0.00,WUHU216HW,2013-09-04 06:04:00,
2013-09-03 23:09:00,63.7,57.8,29.96,NNW,338,1.1,1.6,81,0.00,,,0.00,WUHU216HW,2013-09-04 06:09:00,
2013-09-03 23:14:00,63.5,58.0,29.96,North,0,0.9,1.3,82,0.00,,,0.00,WUHU216HW,2013-09-04 06:14:00,
2013-09-03 23:19:00,63.4,57.8,29.96,NW,315,0.9,1.6,82,0.00,,,0.00,WUHU216HW,2013-09-04 06:19:00,
2013-09-03 23:24:00,63.4,57.8,29.96,NW,315,0.9,1.6,82,0.00,,,0.00,WUHU216HW,2013-09-04 06:24:00,
2013-09-03 23:29:00,63.2,57.6,29.96,NNE,23,1.1,1.3,82,0.00,,,0.00,WUHU216HW,2013-09-04 06:29:00,
2013-09-03 23:34:00,63.0,57.7,29.97,ENE,68,0.2,1.3,83,0.00,,,0.00,WUHU216HW,2013-09-04 06:34:00,
2013-09-03 23:39:00,63.0,57.7,29.97,ENE,68,0.4,1.3,83,0.00,,,0.00,WUHU216HW,2013-09-04 06:39:00,
2013-09-03 23:44:00,63.0,57.7,29.97,ENE,68,0.0,0.4,83,0.00,,,0.00,WUHU216HW,2013-09-04 06:44:00,
2013-09-03 23:49:00,62.8,57.5,29.96,ENE,68,0.0,0.4,83,0.00,,,0.00,WUHU216HW,2013-09-04 06:49:00,
2013-09-03 23:54:00,62.8,57.5,29.96,ENE,68,0.0,0.4,83,0.00,,,0.00,WUHU216HW,2013-09-04 06:54:00,
2013-09-03 23:59:00,62.6,57.3,29.96,ENE,68,0.0,0.9,83,0.00,,,0.00,WUHU216HW,2013-09-04 06:59:00,